Weather History for Bend, OR

Change the Weather History Date:

Sunday, November 24, 2013

  Actual Average (KRDM) Record (KRDM)
Temperature  
Mean Temperature 34 °F 34 °F  
Max Temperature 57 °F 45 °F 68 °F (1954)
Min Temperature 10 °F 24 °F -10 °F (1993)
Degree Days  
Heating Degree Days 32 31  
Month to date heating degree days 640  
Since 1 July heating degree days 1585  
Cooling Degree Days 0 0  
Month to date cooling degree days 0  
Year to date cooling degree days 222  
Moisture  
Dew Point 13 °F    
Average Humidity 58    
Maximum Humidity 92    
Minimum Humidity 17    
Precipitation  
Precipitation 0.00 in 0.03 in 0.58 in (1960)
Month to date precipitation 0.75  
Year to date precipitation 7.53  
Sea Level Pressure  
Sea Level Pressure 30.25 in    
Wind  
Wind Speed 2 mph (SSE)    
Max Wind Speed 7 mph    
Max Gust Speed -    
Visibility 10 miles    
Events      
T = Trace of Precipitation, MM = Missing Value Source: NWS Daily Summary

Daily Weather History Graph

Daily Weather History Graph

Search for Another Location

Airport:

Trip Planner

Search our weather history database for the weather conditions in past years. The results will help you decide how hot, cold, wet, or windy it might be!

Date:

Astronomy

Nov. 24, 2013 Rise Set
Actual Time 7:11 AM PST 4:30 PM PST
Civil Twilight 6:39 AM PST 5:02 PM PST
Nautical Twilight 6:04 AM PST 5:38 PM PST
Astronomical Twilight 5:29 AM PST 6:13 PM PST
Moon 11:09 PM PST (11/24) 11:56 AM PST (11/24)
Length of Visible Light 10h 22m
Length of Day
9h 18m
Waning Gibbous, 59% of the Moon is Illuminated
Nov 24
Waning Gibbous
Nov 25
Last Quarter
Dec 2
New
Dec 9
First Quarter
Dec 17
Full

Hourly Weather History & Observations

Time (PST) Temp. Windchill Dew Point Humidity Pressure Visibility Wind Dir Wind Speed Gust Speed Precip Events Conditions
12:15 AM 15.8 °F 7.2 °F 10.4 °F 79% 30.27 in 10.0 mi SSW 5.8 mph - N/A   Clear
12:35 AM 15.8 °F 10.2 °F 10.4 °F 79% 30.27 in 10.0 mi WSW 3.5 mph - N/A   Clear
12:55 AM 12.2 °F - 8.6 °F 85% 30.26 in 10.0 mi Calm Calm - N/A   Clear
1:15 AM 14.0 °F - 10.4 °F 86% 30.26 in 10.0 mi Calm Calm - N/A   Clear
1:35 AM 14.0 °F - 8.6 °F 79% 30.25 in 10.0 mi Calm Calm - N/A   Clear
1:55 AM 14.0 °F - 10.4 °F 86% 30.26 in 10.0 mi Calm Calm - N/A   Clear
2:15 AM 14.0 °F - 10.4 °F 86% 30.26 in 10.0 mi Calm Calm - N/A   Clear
2:35 AM 15.8 °F - 10.4 °F 79% 30.26 in 10.0 mi Calm Calm - N/A   Clear
2:55 AM 14.0 °F - 10.4 °F 86% 30.26 in 10.0 mi Calm Calm - N/A   Clear
3:15 AM 14.0 °F - 8.6 °F 79% 30.26 in 10.0 mi Calm Calm - N/A   Clear
3:35 AM 14.0 °F - 10.4 °F 86% 30.25 in 10.0 mi Calm Calm - N/A   Clear
3:55 AM 14.0 °F - 10.4 °F 86% 30.25 in 10.0 mi Calm Calm - N/A   Clear
4:15 AM 14.0 °F - 10.4 °F 86% 30.25 in 10.0 mi Calm Calm - N/A   Clear
4:35 AM 15.8 °F 7.2 °F 10.4 °F 79% 30.24 in 10.0 mi SSW 5.8 mph - N/A   Clear
4:55 AM 17.6 °F 9.3 °F 12.2 °F 79% 30.24 in 10.0 mi SSW 5.8 mph - N/A   Clear
5:15 AM 14.0 °F - 10.4 °F 86% 30.25 in 10.0 mi Calm Calm - N/A   Clear
5:35 AM 10.4 °F - 8.6 °F 92% 30.25 in 10.0 mi Calm Calm - N/A   Clear
5:55 AM 10.4 °F - 6.8 °F 85% 30.24 in 10.0 mi Calm Calm - N/A   Clear
6:15 AM 10.4 °F - 6.8 °F 85% 30.25 in 10.0 mi Calm Calm - N/A   Clear
6:35 AM 14.0 °F 5.1 °F 10.4 °F 86% 30.25 in 10.0 mi South 5.8 mph - N/A   Clear
6:55 AM 14.0 °F 5.1 °F 10.4 °F 86% 30.24 in 10.0 mi South 5.8 mph - N/A   Clear
7:15 AM 15.8 °F 8.6 °F 10.4 °F 79% 30.24 in 10.0 mi South 4.6 mph - N/A   Clear
7:35 AM 17.6 °F 8.2 °F 10.4 °F 73% 30.24 in 10.0 mi ESE 6.9 mph - N/A   Clear
7:55 AM 23.0 °F 14.7 °F 14.0 °F 68% 30.24 in 10.0 mi SE 6.9 mph - N/A   Clear
8:15 AM 23.0 °F 15.8 °F 14.0 °F 68% 30.25 in 10.0 mi SE 5.8 mph - N/A   Clear
8:35 AM 24.8 °F 16.9 °F 14.0 °F 64% 30.25 in 10.0 mi SE 6.9 mph - N/A   Clear
8:55 AM 28.4 °F 21.2 °F 14.0 °F 55% 30.25 in 10.0 mi ESE 6.9 mph - N/A   Clear
9:15 AM 30.2 °F 24.3 °F 14.0 °F 51% 30.25 in 10.0 mi SE 5.8 mph - N/A   Clear
9:35 AM 32.0 °F 28.7 °F 14.0 °F 48% 30.25 in 10.0 mi ESE 3.5 mph - N/A   Clear
9:55 AM 33.8 °F - 14.0 °F 44% 30.25 in 10.0 mi Calm Calm - N/A   Clear
10:15 AM 37.4 °F 34.9 °F 15.8 °F 41% 30.25 in 10.0 mi ESE 3.5 mph - N/A   Clear
10:35 AM 39.2 °F 35.0 °F 15.8 °F 39% 30.24 in 10.0 mi SE 5.8 mph - N/A   Clear
10:55 AM 41.0 °F 36.4 °F 15.8 °F 36% 30.24 in 10.0 mi SE 6.9 mph - N/A   Clear
11:15 AM 44.6 °F 41.4 °F 14.0 °F 29% 30.23 in 10.0 mi SE 5.8 mph - N/A   Clear
11:35 AM 46.4 °F 42.9 °F 14.0 °F 27% 30.22 in 10.0 mi SSE 6.9 mph - N/A   Clear
11:55 AM 48.2 °F - 14.0 °F 25% 30.21 in 10.0 mi SE 5.8 mph - N/A   Clear
12:15 PM 48.2 °F - 14.0 °F 25% 30.21 in 10.0 mi Calm Calm - N/A   Clear
12:35 PM 50.0 °F - 14.0 °F 24% 30.20 in 10.0 mi Calm Calm - N/A   Clear
12:55 PM 51.8 °F - 14.0 °F 22% 30.20 in 10.0 mi Calm Calm - N/A   Clear
1:15 PM 53.6 °F - 14.0 °F 21% 30.20 in 10.0 mi SE 4.6 mph - N/A   Clear
1:35 PM 55.4 °F - 14.0 °F 20% 30.19 in 10.0 mi Calm Calm - N/A   Clear
1:55 PM 55.4 °F - 14.0 °F 20% 30.19 in 10.0 mi Calm Calm - N/A   Clear
2:15 PM 57.2 °F - 14.0 °F 18% 30.20 in 10.0 mi Calm Calm - N/A   Clear
2:35 PM 55.4 °F - 14.0 °F 20% 30.19 in 9.0 mi Calm Calm - N/A   Clear
2:55 PM 55.4 °F - 14.0 °F 20% 30.20 in 10.0 mi Calm Calm - N/A   Clear
3:15 PM 57.2 °F - 12.2 °F 17% 30.20 in 10.0 mi Calm Calm - N/A   Clear
3:35 PM 55.4 °F - 12.2 °F 18% 30.20 in 10.0 mi Calm Calm - N/A   Clear
3:55 PM 53.6 °F - 10.4 °F 18% 30.20 in 10.0 mi North 3.5 mph - N/A   Clear
4:15 PM 50.0 °F - 17.6 °F 28% 30.21 in 10.0 mi Calm Calm - N/A   Clear
4:35 PM 46.4 °F - 15.8 °F 29% 30.21 in 10.0 mi Calm Calm - N/A   Clear
4:55 PM 41.0 °F 37.1 °F 15.8 °F 36% 30.22 in 10.0 mi NNW 5.8 mph - N/A   Clear
5:15 PM 39.2 °F - 17.6 °F 42% 30.23 in 10.0 mi Calm Calm - N/A   Clear
5:35 PM 37.4 °F - 17.6 °F 45% 30.23 in 10.0 mi Calm Calm - N/A   Clear
5:55 PM 33.8 °F - 15.8 °F 48% 30.25 in 10.0 mi Calm Calm - N/A   Clear
6:15 PM 32.0 °F - 15.8 °F 51% 30.25 in 10.0 mi Calm Calm - N/A   Clear
6:35 PM 28.4 °F - 15.8 °F 59% 30.26 in 10.0 mi Calm Calm - N/A   Clear
6:55 PM 28.4 °F - 17.6 °F 64% 30.26 in 10.0 mi Calm Calm - N/A   Clear
7:15 PM 28.4 °F - 15.8 °F 59% 30.27 in 10.0 mi Calm Calm - N/A   Clear
7:35 PM 26.6 °F - 15.8 °F 64% 30.28 in 10.0 mi Calm Calm - N/A   Clear
7:55 PM 26.6 °F - 15.8 °F 64% 30.28 in 10.0 mi Calm Calm - N/A   Clear
8:15 PM 26.6 °F - 15.8 °F 64% 30.29 in 10.0 mi Calm Calm - N/A   Clear
8:35 PM 26.6 °F 21.2 °F 15.8 °F 64% 30.29 in 10.0 mi SSW 4.6 mph - N/A   Clear
8:55 PM 28.4 °F - 15.8 °F 59% 30.29 in 10.0 mi Calm Calm - N/A   Clear
9:15 PM 28.4 °F - 17.6 °F 64% 30.29 in 10.0 mi Calm Calm - N/A   Clear
9:35 PM 26.6 °F - 15.8 °F 64% 30.29 in 10.0 mi Calm Calm - N/A   Clear
9:55 PM 26.6 °F - 15.8 °F 64% 30.30 in 10.0 mi Calm Calm - N/A   Clear
10:15 PM 24.8 °F 19.1 °F 15.8 °F 69% 30.29 in 10.0 mi SSW 4.6 mph - N/A   Clear
10:35 PM 24.8 °F 20.5 °F 15.8 °F 69% 30.30 in 10.0 mi SSW 3.5 mph - N/A   Clear
10:55 PM 23.0 °F - 15.8 °F 74% 30.30 in 10.0 mi Calm Calm - N/A   Clear
11:15 PM 23.0 °F 18.4 °F 15.8 °F 74% 30.30 in 10.0 mi SSE 3.5 mph - N/A   Clear
11:35 PM 21.2 °F - 14.0 °F 74% 30.30 in 10.0 mi Calm Calm - N/A   Clear
11:55 PM 21.2 °F - 15.8 °F 80% 30.31 in 10.0 mi Calm Calm - N/A   Clear